TimeMDT,TemperatureF,Dew PointF,Humidity,Sea Level PressureIn,VisibilityMPH,Wind Direction,Wind SpeedMPH,Gust SpeedMPH,PrecipitationIn,Events,Conditions,WindDirDegrees,DateUTC
12:53 AM,26.1,5.0,41,30.10,10.0,NNW,6.9,-,N/A,,Clear,330,2014-03-20 06:53:00
1:53 AM,24.1,7.0,48,30.10,10.0,NE,5.8,-,N/A,,Clear,40,2014-03-20 07:53:00
2:53 AM,21.9,6.1,51,30.09,10.0,ENE,8.1,-,N/A,,Clear,60,2014-03-20 08:53:00
3:53 AM,19.0,3.9,52,30.06,10.0,NNE,5.8,-,N/A,,Clear,20,2014-03-20 09:53:00
4:53 AM,16.0,3.9,59,30.07,10.0,ENE,8.1,-,N/A,,Clear,70,2014-03-20 10:53:00
5:53 AM,17.1,3.0,54,30.08,10.0,ENE,6.9,-,N/A,,Clear,60,2014-03-20 11:53:00
6:53 AM,19.0,1.9,47,30.10,10.0,NNE,4.6,-,N/A,,Clear,30,2014-03-20 12:53:00
7:53 AM,19.9,1.9,46,30.13,10.0,NE,9.2,-,N/A,,Clear,50,2014-03-20 13:53:00
8:53 AM,30.0,5.0,35,30.08,10.0,NE,8.1,-,N/A,,Clear,50,2014-03-20 14:53:00
9:53 AM,43.0,1.0,17,30.02,10.0,ENE,8.1,-,N/A,,Clear,60,2014-03-20 15:53:00
10:53 AM,50.0,-6.0,10,30.02,10.0,Variable,4.6,-,N/A,,Clear,0,2014-03-20 16:53:00
11:53 AM,57.0,-6.0,8,29.96,10.0,Variable,5.8,-,N/A,,Clear,0,2014-03-20 17:53:00
12:53 PM,64.9,-9.0,5,29.88,10.0,South,13.8,18.4,N/A,,Clear,190,2014-03-20 18:53:00
1:53 PM,70.0,-18.9,4,29.80,10.0,SSW,18.4,28.8,N/A,,Clear,210,2014-03-20 19:53:00
2:53 PM,72.0,-22.0,4,29.77,10.0,SW,23.0,28.8,N/A,,Clear,220,2014-03-20 20:53:00
3:53 PM,71.1,-22.0,4,29.76,10.0,SW,33.4,41.4,N/A,,Clear,220,2014-03-20 21:53:00
4:53 PM,69.1,-15.0,4,29.79,10.0,WSW,13.8,32.2,N/A,,Clear,240,2014-03-20 22:53:00
5:53 PM,64.9,-11.0,4,29.80,10.0,SW,12.7,-,N/A,,Clear,230,2014-03-20 23:53:00
6:53 PM,61.0,-9.0,6,29.83,10.0,WSW,13.8,-,N/A,,Clear,250,2014-03-21 00:53:00
7:53 PM,55.9,-7.1,7,29.86,10.0,WSW,11.5,-,N/A,,Clear,240,2014-03-21 01:53:00
8:53 PM,54.0,-7.1,8,29.83,10.0,SW,11.5,23.0,N/A,,Clear,230,2014-03-21 02:53:00
9:53 PM,48.9,-7.1,10,29.81,10.0,West,10.4,-,N/A,,Clear,260,2014-03-21 03:53:00
10:53 PM,52.0,-6.0,9,29.76,10.0,WSW,17.3,-,N/A,,Clear,240,2014-03-21 04:53:00
11:53 PM,46.0,-7.1,11,29.75,10.0,South,4.6,-,N/A,,Clear,190,2014-03-21 05:53:00